STARLINK-5344, 55494

Orbit data source: Space-Track

STARLINK-5344, 55494 is a payload satellite owned by SpaceX/Seattle (US) in LEO that was launched on Thu, 02 Feb 2023 UTC via an FALCON 9 launch vehicle from the Air Force Eastern Test Range (AFETR). Payload-class satellites include a variety of spacecraft equipped with specific instruments for various scientific and technological missions. These include communications satellites like Starlink; space stations such as the ISS; scientific satellites like the Hubble; Earth observation satellites from companies like Planet Labs, Umbra, and HawkEye 360; GPS; miniature CubeSats for education and research; and military/defense satellites.

Loading next visibility...
Identifier
55494, 2023-015AX
Orbit
LEO
Country
Flag of USUS
Related business
Manufacturer
SpaceX/Seattle
Mission
Operational Commercial Communications
Bus & Motor
STARLINK, Unknown motor
Mass
305 kg wet, ~290 kg dry
Launch date (UTC)
2023-02-02 (3 years ago)
Launch vehicle
FALCON 9
Launch site
Air Force Eastern Test Range (AFETR)
Object type
Payload
Rocket body
Debris
Shape & HBR
Box + 1 Pan, 10.1 m
Radar Cross Section
13.562 m², Large (>1 m²)

Expand to show TLE details & history
Last TLE update: 16 hours ago

TLE from 16 hours ago
0 STARLINK-5344
1 55494U 23015AX  26035.35868014 -.00000434  00000-0 -17030-4 0  9997
2 55494  42.9999 159.7839 0001350 274.3791  85.6897 15.02543549165592
Epoch: 2026-02-04T08:36Z
TLE epoch observation values (Epoch: 2026-02-04T08:36:29.964Z)
Latitude
-0.00001°
Longitude
-103.86736°
Altitude
558.764 km
Speed
7.584 km/s
True Right ascension
10h 39m 08s
True Declination
0° 00' 00"
Sunlit
Object was in full shadow at epoch
Visualization orbit readout
Latitude
Unknown
Longitude
Unknown
Altitude
Unknown
Speed
Unknown
Apparent Right ascension
Unknown
Apparent Declination
Unknown
Sunlit
N/A
Visualization observer readout
Local Sidereal Time
03:05:23
Azimuth
Unknown
Elevation
Unknown
Doppler factor
Unknown
Orbital elements
Apogee altitude
561.917 km
Perigee altitude
560.043 km
Semi-major axis
6,939.117 km
Eccentricity
0.00014
Inclination
42.9999°
RAAN
159.7839°
Arg. of periapsis
274.3791°
True anomaly
85.70513°
Mean anomaly
85.6897°
Eccentric anomaly
85.69741°
Mean motion
3.7548 °/min
Orbital period
95.88 mins
BSTAR
-0.00001703
Loading maneuver chart data...
Computing Atmospheric mass density...
Loading historical data...
Loading historical data...
Loading historical data...
Loading historical data...
Loading historical data...
Loading historical data...
Loading historical data...

Documentation

Showing up to 5 results
|